Retour au catalogue

GLOBALSTAR M086

ActifCommunicationsLEO
NORAD 38045·PAYLOAD·🇺🇸 United States

Lancé Dec 28, 2011 depuis Baikonur Cosmodrome

Loading…

Prochains Passages (prochaines 24 heures)

TLE

FraisSource: Space-Track

Époque: Sep 14, 2026, 10:53 UTC

1 38045U 11080F   26257.45363696 -.00000112  00000-0 -44225-4 0  9991
2 38045  51.9898  56.5467 0000592 212.2947 165.9360 12.62289065680935

Suivez GLOBALSTAR M086 en temps réel avec AllMySat

Download on the App Store